This demonstration page uses our WeatherBlox Daily Observations layout. Learn more.

Hourly Observations for June 6, 2019

Temp ( °F °C ) Dew Point ( °F °C ) Humidity (%) Winds ( mph kmh ) Pressure ( in mb ) Visibility ( mi km ) Precip ( " mm )
12:15 am 00:15 Clear 68 20 61 16.1 78 78 NNE 7 11 29.83 1010 10 16.09344 0 0
12:35 am 00:35 Clear 67 19.6 61 15.9 79 79 NNE 7 11 29.83 1010 10 16.09344 0 0
12:55 am 00:55 Clear 67 19.5 60 15.6 78 78 NNE 8 13 29.83 1010 10 16.09344 0 0
1:15 am 01:15 Clear 66 19 60 15.7 81 81 NNE 7 11 29.83 1010 10 16.09344 0 0
1:35 am 01:35 Clear 65 18.5 60 15.7 84 84 N 7 11 29.85 1011 10 16.09344 0 0
1:55 am 01:55 Clear 65 18.2 60 15.5 84 84 N 6 9 29.85 1011 10 16.09344 0 0
2:15 am 02:15 Clear 64 18 60 15.5 85 85 N 6 9 29.85 1011 10 16.09344 0 0
2:35 am 02:35 Clear 64 17.8 60 15.5 86 86 N 7 11 29.83 1010 10 16.09344 0 0
2:55 am 02:55 Clear 64 17.8 59 15.2 85 85 N 6 9 29.83 1010 10 16.09344 0 0
3:15 am 03:15 Clear 64 17.7 59 15.1 85 85 N 7 11 29.83 1010 10 16.09344 0 0
3:35 am 03:35 Clear 64 17.7 59 15 84 84 N 6 9 29.83 1010 10 16.09344 0 0
3:55 am 03:55 Clear 64 17.5 59 15 85 85 N 6 9 29.83 1010 10 16.09344 0 0
4:15 am 04:15 Clear 64 17.5 59 15.2 86 86 N 7 11 29.83 1010 10 16.09344 0 0
4:35 am 04:35 Clear 63 17.1 59 15 88 88 N 6 9 29.83 1010 10 16.09344 0 0
4:55 am 04:55 Clear 64 17.8 59 14.8 83 83 N 6 9 29.83 1010 10 16.09344 0 0
5:15 am 05:15 Partly Cloudy 64 17.5 59 14.8 84 84 NNW 6 9 29.83 1010 10 16.09344 0 0
5:35 am 05:35 Partly Cloudy 64 17.5 59 14.9 85 85 NNW 9 15 29.83 1010 10 16.09344 0 0
5:55 am 05:55 Clear 64 17.5 58 14.6 83 83 NNW 5 7 29.83 1010 10 16.09344 0 0
6:15 am 06:15 Sunny 63 17 58 14.7 86 86 NNW 5 7 29.85 1011 10 16.09344 0 0
6:35 am 06:35 Sunny 63 17 58 14.6 86 86 NNW 5 7 29.85 1011 10 16.09344 0 0
6:55 am 06:55 Mostly Cloudy 63 17.2 58 14.5 84 84 N 5 7 29.85 1011 10 16.09344 0 0
7:15 am 07:15 Mostly Cloudy 63 17.3 58 14.7 85 85 N 5 7 29.85 1011 10 16.09344 0 0
7:35 am 07:35 Mostly Cloudy 64 17.8 58 14.7 82 82 NNW 5 7 29.88 1012 10 16.09344 0 0
7:55 am 07:55 Partly Cloudy 65 18.2 59 14.8 81 81 N 3 6 29.88 1012 10 16.09344 0 0
8:15 am 08:15 Partly Cloudy 65 18.6 59 14.9 79 79 N 3 6 29.88 1012 10 16.09344 0 0
8:35 am 08:35 Partly Cloudy 67 19.3 59 15 76 76 N 7 11 29.85 1011 10 16.09344 0 0
8:55 am 08:55 Partly Cloudy 68 19.9 60 15.4 75 75 NNE 5 7 29.85 1011 10 16.09344 0 0
9:15 am 09:15 Partly Cloudy 69 20.4 60 15.6 74 74 NNE 7 11 29.85 1011 10 16.09344 0 0
9:35 am 09:35 Partly Cloudy 70 21.1 61 16 73 73 NNE 5 7 29.85 1011 10 16.09344 0 0
9:55 am 09:55 Partly Cloudy 71 21.8 62 16.5 72 72 NNE 8 13 29.83 1010 10 16.09344 0 0
10:15 am 10:15 Sunny 72 22.4 62 16.9 71 71 NNE 7 11 29.8 1009 10 16.09344 0 0
10:35 am 10:35 Partly Cloudy 74 23.3 62 16.9 67 67 N 6 9 29.8 1009 10 16.09344 0 0
10:55 am 10:55 Partly Cloudy 76 24.5 63 17.4 65 65 N 7 11 29.8 1009 10 16.09344 0 0
11:15 am 11:15 Mostly Cloudy 75 24.1 64 17.5 67 67 E 9 15 29.83 1010 10 16.09344 0 0
11:35 am 11:35 Partly Cloudy 76 24.5 64 17.7 66 66 ENE 6 9 29.83 1010 10 16.09344 0 0
11:55 am 11:55 Sunny 77 25 64 17.9 65 65 NE 6 9 29.83 1010 10 16.09344 0 0
12:15 pm 12:15 Mostly Cloudy 77 25 64 17.7 64 64 ENE 3 6 29.83 1010 10 16.09344 0 0
12:35 pm 12:35 Partly Cloudy 79 26 65 18.1 62 62 ESE 6 9 29.83 1010 10 16.09344 0 0
12:55 pm 12:55 Sunny 78 25.8 65 18.2 63 63 E 5 7 29.8 1009 10 16.09344 0 0
1:15 pm 13:15 Sunny 80 26.6 66 18.9 63 63 E 6 9 29.77 1008 10 16.09344 0 0
1:35 pm 13:35 Sunny 80 26.6 65 18.2 60 60 E 6 9 29.77 1008 10 16.09344 0 0
1:55 pm 13:55 Sunny 80 26.6 64 18 59 59 ENE 6 9 29.77 1008 10 16.09344 0 0
2:15 pm 14:15 Sunny 82 27.6 65 18.3 57 57 ENE 5 7 29.77 1008 10 16.09344 0 0
2:35 pm 14:35 Partly Cloudy 82 27.8 64 17.7 54 54 NE 3 6 29.77 1008 10 16.09344 0 0
2:55 pm 14:55 Sunny 83 28.1 62 16.5 49 49 E 8 13 29.77 1008 10 16.09344 0 0
3:15 pm 15:15 Partly Cloudy 84 28.7 60 15.7 45 45 E 8 13 29.74 1007 10 16.09344 0 0
3:35 pm 15:35 Sunny 84 28.9 59 15 43 43 E 9 15 29.77 1008 10 16.09344 0 0
3:55 pm 15:55 Sunny 85 29.3 59 14.9 42 42 E 10 17 29.74 1007 10 16.09344 0 0
4:15 pm 16:15 Partly Cloudy 84 29 58 14.7 42 42 ENE 9 15 29.74 1007 10 16.09344 0 0
4:35 pm 16:35 Sunny 85 29.7 58 14.7 40 40 E 9 15 29.71 1006 10 16.09344 0 0
4:55 pm 16:55 Sunny 85 29.7 57 13.9 38 38 E 12 19 29.71 1006 10 16.09344 0 0
5:15 pm 17:15 Sunny 85 29.6 58 14.2 39 39 ENE 12 19 29.71 1006 10 16.09344 0 0
5:35 pm 17:35 Sunny 85 29.3 57 13.7 38 38 E 10 17 29.74 1007 7 11.265408 0 0
5:55 pm 17:55 Partly Cloudy 85 29.5 58 14.7 41 41 E 13 20 29.71 1006 10 16.09344 0 0
6:15 pm 18:15 Partly Cloudy 83 28.4 60 15.3 45 45 E 15 24 29.74 1007 10 16.09344 0 0
6:35 pm 18:35 Partly Cloudy 84 28.7 60 15.3 44 44 ESE 13 20 29.74 1007 10 16.09344 0 0
6:55 pm 18:55 Sunny 82 27.9 59 15.2 46 46 ESE 10 17 29.74 1007 10 16.09344 0 0
7:15 pm 19:15 Sunny 83 28.3 59 15.2 45 45 ESE 12 19 29.74 1007 10 16.09344 0 0
7:35 pm 19:35 Sunny 82 27.7 58 14.7 45 45 ESE 12 19 29.74 1007 10 16.09344 0 0
7:55 pm 19:55 Sunny 81 27.3 57 13.7 43 43 ESE 13 20 29.74 1007 10 16.09344 0 0
8:15 pm 20:15 Sunny 80 26.8 60 15.8 51 51 SSE 12 19 29.77 1008 10 16.09344 0 0
8:35 pm 20:35 Mostly Cloudy 79 26 63 17 58 58 SE 9 15 29.77 1008 10 16.09344 0 0
8:55 pm 20:55 Mostly Cloudy 77 24.8 64 17.5 64 64 ESE 8 13 29.8 1009 10 16.09344 0 0
9:15 pm 21:15 Partly Cloudy 75 23.9 63 17.4 67 67 ESE 8 13 29.8 1009 10 16.09344 0 0
9:35 pm 21:35 Clear 73 23 63 17.1 70 70 ESE 8 13 29.8 1009 10 16.09344 0 0
9:55 pm 21:55 Clear 72 22.2 64 17.5 75 75 ESE 6 9 29.8 1009 10 16.09344 0 0
10:15 pm 22:15 Clear 72 22 64 17.5 76 76 E 5 7 29.83 1010 10 16.09344 0 0
10:35 pm 22:35 Clear 72 22.1 63 17.1 73 73 Calm 29.83 1010 10 16.09344 0 0
10:55 pm 22:55 Clear 71 21.5 63 17.2 77 77 ESE 5 7 29.83 1010 10 16.09344 0 0
11:15 pm 23:15 Clear 69 20.7 63 17.1 80 80 ESE 6 9 29.83 1010 10 16.09344 0 0
11:35 pm 23:35 Clear 68 20.2 63 17.2 83 83 ESE 5 7 29.83 1010 10 16.09344 0 0
11:55 pm 23:55 Clear 68 20 63 17.2 84 84 SE 5 7 29.83 1010 10 16.09344 0 0

Powered by AerisWeather